Date String (YYYY-MM-DD hh:mm:ss) UTC,Instrument flags,Ambient pressure (hPa),Sample flow (lpm),Bypass flow (lpm),Sample temperature (°C),Ambient temperature (°C),ASC tube jacket temperature (°C),LED temperature (°C),Box temperature (°C),Sample RH (%),Span deviation,Mass concentration (μg/m³),Mass concentration (μg/m³),Mass concentration (μg/m³)
DateTimeUTC,F1_M11,P_M11,Q1_M11,Q2_M11,T1_M11,T2_M11,T3_M11,T4_M11,T5_M11,U1_M11,ZSPAN_M11,X0_M11,X2_M11,X1_M11
2021-09-16 15:00:00,,0823.9,4.99,0.00,29.8,26.8,00.0,39.0,31.2,14.9,0001.6,0018.62,0006.65,0005.83
2021-09-16 15:01:00,,0823.9,4.99,0.00,29.8,27.2,00.0,39.0,31.3,15.0,0001.9,0018.50,0006.73,0005.84
2021-09-16 15:02:00,,0824.0,5.01,0.00,29.8,27.6,00.0,38.9,31.3,15.0,0002.3,0018.91,0006.83,0005.85
2021-09-16 15:03:00,,0824.0,4.99,0.00,29.8,27.9,00.0,38.9,31.4,15.9,0002.6,0019.64,0006.82,0005.82
2021-09-16 15:04:00,,0824.0,5.01,0.00,29.8,28.2,00.0,38.9,31.5,16.1,0002.5,0020.79,0006.76,0005.75
2021-09-16 15:05:00,,0824.0,5.00,0.00,29.8,28.4,00.0,38.9,31.6,15.3,0002.7,0021.02,0006.73,0005.66
2021-09-16 15:06:00,,0824.0,5.01,0.00,29.9,28.6,00.0,38.9,31.6,16.4,0002.9,0021.20,0006.73,0005.62
2021-09-16 15:07:00,,0824.0,4.99,0.00,29.9,28.7,00.0,38.9,31.7,16.7,0003.0,0021.08,0006.73,0005.59
2021-09-16 15:08:00,,0823.9,5.02,0.00,29.9,28.8,00.0,38.9,31.7,16.6,0003.3,0020.89,0006.75,0005.59
2021-09-16 15:09:00,,0823.9,5.00,0.00,30.0,28.9,00.0,39.0,31.8,17.7,0003.8,0020.39,0006.70,0005.57
2021-09-16 15:10:00,,0823.9,5.00,0.00,30.0,29.0,00.0,39.0,31.8,18.8,0003.7,0020.04,0006.70,0005.54
2021-09-16 15:11:00,,0824.0,4.99,0.00,30.0,29.1,00.0,39.0,31.9,19.1,0003.8,0020.31,0006.69,0005.52
2021-09-16 15:12:00,,0824.0,5.01,0.00,30.0,28.1,00.0,39.0,31.6,19.1,0003.5,0020.32,0006.63,0005.50
2021-09-16 15:13:00,,0824.0,4.99,0.00,29.9,26.5,00.0,39.0,31.1,18.9,0003.3,0018.93,0006.60,0005.47
2021-09-16 15:14:00,,0824.0,5.00,0.00,29.7,26.5,00.0,39.0,31.1,18.9,0003.3,0017.99,0006.60,0005.47
2021-09-16 15:15:00,,0824.0,5.01,0.00,29.7,26.9,00.0,38.9,31.2,18.6,0003.3,0016.81,0006.65,0005.47
2021-09-16 15:16:00,,0824.0,5.00,0.00,29.7,27.3,00.0,38.9,31.3,18.0,0003.1,0016.73,0006.61,0005.47
2021-09-16 15:17:00,,0824.0,5.00,0.00,29.7,27.7,00.0,38.9,31.3,17.9,0002.7,0016.14,0006.59,0005.45
2021-09-16 15:18:00,,0823.9,5.00,0.00,29.7,28.0,00.0,38.8,31.4,16.5,0002.4,0015.78,0006.59,0005.45
2021-09-16 15:19:00,,0824.0,4.98,0.00,29.7,28.3,00.0,38.8,31.5,16.7,0002.2,0015.99,0006.53,0005.43
2021-09-16 15:20:00,,0823.9,5.00,0.00,29.8,28.5,00.0,38.8,31.5,15.2,0002.1,0015.78,0006.51,0005.43
2021-09-16 15:21:00,,0824.0,5.01,0.00,29.8,28.6,00.0,38.9,31.6,16.5,0002.0,0015.97,0006.52,0005.45
2021-09-16 15:22:00,,0824.0,4.99,0.00,29.8,28.8,00.0,38.9,31.7,17.4,0001.8,0015.97,0006.49,0005.46
2021-09-16 15:23:00,,0824.0,5.01,0.00,29.9,28.9,00.0,38.9,31.7,18.7,0001.6,0014.96,0006.48,0005.47
2021-09-16 15:24:00,,0824.0,5.01,0.00,29.9,29.0,00.0,38.9,31.8,17.8,0001.5,0015.08,0006.50,0005.48
2021-09-16 15:25:00,,0824.0,4.99,0.00,29.9,28.5,00.0,38.9,31.7,16.4,0001.5,0014.86,0006.53,0005.48
2021-09-16 15:26:00,,0824.0,5.01,0.00,29.8,26.8,00.0,38.9,31.2,17.7,0001.5,0015.08,0006.50,0005.48
2021-09-16 15:27:00,,0824.0,5.00,0.00,29.7,26.4,00.0,38.9,31.1,17.9,0001.7,0016.67,0006.53,0005.49
2021-09-16 15:28:00,,0823.9,5.00,0.00,29.7,26.8,00.0,38.9,31.1,17.3,0001.9,0016.89,0006.60,0005.52
2021-09-16 15:29:00,,0824.0,5.00,0.00,29.6,27.2,00.0,38.8,31.2,17.0,0002.2,0016.92,0006.57,0005.52
2021-09-16 15:30:00,,0824.0,5.00,0.00,29.6,27.6,00.0,38.8,31.3,17.9,0002.6,0017.64,0006.61,0005.53
2021-09-16 15:31:00,,0823.9,4.99,0.00,29.7,27.9,00.0,38.8,31.4,18.0,0002.4,0017.43,0006.66,0005.54
2021-09-16 15:32:00,,0824.0,5.00,0.00,29.7,28.2,00.0,38.8,31.5,17.6,0002.3,0017.34,0006.68,0005.53
2021-09-16 15:33:00,,0824.0,5.00,0.00,29.7,28.4,00.0,38.8,31.5,16.2,0002.9,0017.98,0006.70,0005.54
2021-09-16 15:34:00,,0824.0,5.01,0.00,29.8,28.6,00.0,38.8,31.6,14.7,0002.8,0017.81,0006.70,0005.54
2021-09-16 15:35:00,,0824.0,4.99,0.00,29.8,28.7,00.0,38.8,31.7,15.7,0002.5,0018.37,0006.66,0005.54
2021-09-16 15:36:00,,0824.0,5.01,0.00,29.8,28.9,00.0,38.8,31.7,14.1,0002.9,0018.35,0006.60,0005.54
2021-09-16 15:37:00,,0824.0,5.01,0.00,29.9,28.8,00.0,38.8,31.7,15.2,0002.8,0018.10,0006.61,0005.56
2021-09-16 15:38:00,,0824.0,5.00,0.00,29.8,27.2,00.0,38.8,31.3,14.2,0002.3,0016.65,0006.57,0005.54
2021-09-16 15:39:00,,0824.0,5.00,0.00,29.7,26.4,00.0,38.8,31.1,13.5,0002.0,0016.27,0006.51,0005.52
2021-09-16 15:40:00,,0824.0,5.01,0.00,29.6,26.8,00.0,38.8,31.2,14.4,0001.4,0015.90,0006.49,0005.51
2021-09-16 15:41:00,,0824.0,5.00,0.00,29.6,27.2,00.0,38.8,31.2,14.9,0000.9,0014.69,0006.48,0005.51
2021-09-16 15:42:00,,0824.0,5.01,0.00,29.6,27.5,00.0,38.7,31.3,14.8,0000.8,0014.24,0006.47,0005.50
2021-09-16 15:43:00,,0824.0,5.01,0.00,29.6,27.9,00.0,38.7,31.4,15.3,0000.9,0014.03,0006.44,0005.50
2021-09-16 15:44:00,,0824.0,4.99,0.00,29.7,28.2,00.0,38.7,31.4,15.7,0000.9,0012.73,0006.38,0005.48
2021-09-16 15:45:00,,0823.9,5.01,0.00,29.7,28.4,00.0,38.7,31.5,16.1,0001.2,0013.57,0006.38,0005.47
2021-09-16 15:46:00,,0823.9,5.00,0.00,29.7,28.6,00.0,38.7,31.6,15.8,0001.9,0013.54,0006.37,0005.47
2021-09-16 15:47:00,,0823.9,4.99,0.00,29.8,28.7,00.0,38.8,31.6,16.7,0002.1,0014.33,0006.42,0005.46
2021-09-16 15:48:00,,0824.0,5.00,0.00,29.8,28.9,00.0,38.8,31.7,16.6,0002.3,0014.46,0006.42,0005.43
2021-09-16 15:49:00,,0824.0,5.01,0.00,29.9,28.5,00.0,38.8,31.6,16.0,0002.3,0014.66,0006.42,0005.43
2021-09-16 15:50:00,,0824.0,4.99,0.00,29.8,26.8,00.0,38.8,31.2,15.4,0002.8,0015.30,0006.40,0005.42
2021-09-16 15:51:00,,0824.0,5.00,0.00,29.6,26.4,00.0,38.8,31.0,14.8,0003.3,0015.93,0006.36,0005.41
2021-09-16 15:52:00,,0824.0,5.00,0.00,29.6,26.9,00.0,38.7,31.1,16.3,0003.4,0016.61,0006.37,0005.43
2021-09-16 15:53:00,,0824.0,5.00,0.00,29.6,27.3,00.0,38.7,31.2,16.2,0002.9,0016.71,0006.34,0005.42
2021-09-16 15:54:00,,0823.9,5.00,0.00,29.6,27.6,00.0,38.7,31.3,16.5,0002.8,0017.24,0006.29,0005.41
2021-09-16 15:55:00,,0823.9,4.99,0.00,29.6,28.0,00.0,38.7,31.4,15.1,0002.9,0017.47,0006.30,0005.41
2021-09-16 15:56:00,,0823.9,5.02,0.00,29.6,28.2,00.0,38.7,31.4,13.3,0003.1,0017.27,0006.31,0005.42
2021-09-16 15:57:00,,0823.9,4.99,0.00,29.7,28.5,00.0,38.7,31.5,14.0,0003.2,0017.40,0006.29,0005.41
2021-09-16 15:58:00,,0823.9,5.01,0.00,29.7,28.6,00.0,38.7,31.6,14.0,0002.9,0016.68,0006.23,0005.41
2021-09-16 15:59:00,,0823.9,4.99,0.00,29.8,28.8,00.0,38.7,31.6,14.4,0002.9,0016.33,0006.18,0005.41
